Weather History for KFZY - June, 2013

Change the Weather History Date:

Saturday, June 8, 2013

  Actual Average (KSYR) Record (KSYR)
Temperature  
Mean Temperature 60 °F 65 °F  
Max Temperature 62 °F 76 °F 97 °F (2011)
Min Temperature 55 °F 54 °F 40 °F (1945)
Degree Days  
Heating Degree Days 6 3  
Month to date heating degree days 29  
Since 1 June heating degree days 29  
Since 1 July heating degree days 6619  
Cooling Degree Days 0 3  
Month to date cooling degree days 18  
Year to date cooling degree days 48  
Since 1 June cooling degree days 18  
Growing Degree Days 10 (Base 50)    
Moisture  
Dew Point 55 °F    
Average Humidity 88    
Maximum Humidity 94    
Minimum Humidity 75    
Precipitation  
Precipitation 0.02 in 0.11 in 1.29 in (1906)
Month to date precipitation 0.87  
Year to date precipitation 14.80  
Snow  
Snow 0.00 in 0.00 in 0.00 in (2002)
Month to date snowfall 0.0  
Since 1 June snowfall 0.0  
Since 1 July snowfall 123.8  
Snow Depth -    
Sea Level Pressure  
Sea Level Pressure 29.91 in    
Wind  
Wind Speed 4 mph (WNW)    
Max Wind Speed 12 mph    
Max Gust Speed -    
Visibility 6 miles    
Events Rain    
T = Trace of Precipitation, MM = Missing Value Source: NWS Daily Summary

Daily Weather History Graph

Daily Weather History Graph

Search for Another Location

Airport or City:

Trip Planner

Search our weather history database for the weather conditions in past years. The results will help you decide how hot, cold, wet, or windy it might be!

Date:

Astronomy

Jun. 08, 2013 Rise Set
Actual Time 5:25 AM EDT 8:44 PM EDT
Civil Twilight 4:49 AM EDT 9:19 PM EDT
Nautical Twilight 4:04 AM EDT 10:05 PM EDT
Astronomical Twilight 3:07 AM EDT 11:02 PM EDT
Moon 5:33 AM EDT (6/8) 8:43 PM EDT (6/8)
Length of Visible Light 16h 29m
Length of Day
15h 19m
New Moon, 0% of the Moon is Illuminated
Jun 8
New Moon
Jun 16
First Quarter
Jun 23
Full
Jun 30
Last Quarter
Jul 8
New

Hourly Weather History & Observations

Time (EDT) Temp. Dew Point Humidity Pressure Visibility Wind Dir Wind Speed Gust Speed Precip Events Conditions
12:54 AM 57.0 °F 54.0 °F 89% 29.80 in 10.0 mi ENE 3.5 mph - 0.00 in Rain Light Rain
1:35 AM 57.2 °F 53.6 °F 88% 29.80 in 10.0 mi Calm Calm - 0.01 in   Overcast
1:54 AM 57.0 °F 54.0 °F 89% 29.80 in 10.0 mi Calm Calm - 0.01 in   Overcast
2:54 AM 57.0 °F 55.0 °F 93% 29.78 in 10.0 mi Calm Calm - N/A   Overcast
3:54 AM 57.0 °F 54.0 °F 89% 29.78 in 10.0 mi Calm Calm - N/A   Overcast
4:54 AM 57.0 °F 55.0 °F 93% 29.80 in 10.0 mi NW 3.5 mph - N/A   Overcast
5:43 AM 57.2 °F 55.4 °F 94% 29.81 in 3.0 mi WNW 4.6 mph - N/A   Overcast
5:54 AM 57.0 °F 55.0 °F 93% 29.82 in 2.5 mi West 4.6 mph - N/A   Overcast
6:10 AM 57.2 °F 55.4 °F 94% 29.82 in 1.8 mi WNW 4.6 mph - N/A   Overcast
6:23 AM 57.2 °F 55.4 °F 94% 29.83 in 2.5 mi West 4.6 mph - N/A   Overcast
6:34 AM 57.2 °F 55.4 °F 94% 29.84 in 1.8 mi West 4.6 mph - N/A   Overcast
6:41 AM 57.2 °F 55.4 °F 94% 29.84 in 2.5 mi West 4.6 mph - N/A   Overcast
6:54 AM 57.0 °F 55.0 °F 93% 29.84 in 1.8 mi West 5.8 mph - N/A   Overcast
7:41 AM 57.2 °F 55.4 °F 94% 29.85 in 3.0 mi WNW 4.6 mph - N/A   Overcast
7:54 AM 57.9 °F 55.9 °F 93% 29.86 in 1.5 mi WNW 5.8 mph - N/A   Overcast
7:58 AM 57.2 °F 55.4 °F 94% 29.86 in 0.8 mi West 6.9 mph - N/A   Overcast
8:14 AM 57.2 °F 55.4 °F 94% 29.87 in 1.2 mi NW 4.6 mph - N/A   Overcast
8:18 AM 57.2 °F 55.4 °F 94% 29.87 in 3.0 mi NW 5.8 mph - N/A   Overcast
8:54 AM 57.9 °F 55.9 °F 93% 29.88 in 10.0 mi WNW 4.6 mph - N/A   Overcast
9:54 AM 59.0 °F 55.9 °F 90% 29.90 in 10.0 mi NW 5.8 mph - N/A   Overcast
10:18 AM 60.8 °F 55.4 °F 82% 29.90 in 10.0 mi WNW 6.9 mph - N/A   Overcast
10:54 AM 60.1 °F 55.9 °F 86% 29.91 in 10.0 mi NW 8.1 mph - N/A   Overcast
11:23 AM 59.0 °F 55.4 °F 88% 29.92 in 1.8 mi WNW 9.2 mph - N/A   Overcast
11:36 AM 60.8 °F 57.2 °F 88% 29.92 in 2.5 mi WNW 8.1 mph - N/A   Overcast
11:54 AM 59.0 °F 55.9 °F 90% 29.93 in 5.0 mi WNW 8.1 mph - N/A   Overcast
12:40 PM 59.0 °F 55.4 °F 88% 29.94 in 2.5 mi WNW 6.9 mph - N/A   Overcast
12:54 PM 59.0 °F 55.9 °F 90% 29.95 in 2.5 mi West 9.2 mph - 0.01 in Rain Light Rain
1:06 PM 59.0 °F 55.4 °F 88% 29.95 in 2.0 mi West 9.2 mph - 0.00 in Rain Light Rain
1:20 PM 59.0 °F 55.4 °F 88% 29.95 in 1.8 mi West 9.2 mph - 0.00 in   Overcast
1:28 PM 59.0 °F 57.2 °F 94% 29.95 in 2.0 mi West 5.8 mph - 0.00 in Rain Light Rain
1:49 PM 59.0 °F 55.4 °F 88% 29.95 in 4.0 mi West 11.5 mph - 0.00 in   Overcast
1:54 PM 59.0 °F 55.9 °F 90% 29.96 in 5.0 mi West 10.4 mph - 0.00 in   Overcast
2:38 PM 60.8 °F 55.4 °F 82% 29.96 in 10.0 mi WNW 5.8 mph - N/A   Overcast
2:54 PM 61.0 °F 55.9 °F 83% 29.97 in 10.0 mi West 5.8 mph - N/A   Overcast
3:54 PM 61.0 °F 55.0 °F 81% 29.98 in 10.0 mi West 8.1 mph - N/A   Overcast
4:45 PM 60.8 °F 55.4 °F 82% 29.99 in 10.0 mi WNW 6.9 mph - N/A   Overcast
4:54 PM 62.1 °F 55.0 °F 78% 29.99 in 10.0 mi West 6.9 mph - N/A   Overcast
5:18 PM 62.6 °F 55.4 °F 77% 29.99 in 10.0 mi West 5.8 mph - N/A   Overcast
5:54 PM 61.0 °F 54.0 °F 78% 30.00 in 10.0 mi West 4.6 mph - N/A   Overcast
6:54 PM 61.0 °F 53.1 °F 75% 30.00 in 10.0 mi West 3.5 mph - N/A   Overcast
7:54 PM 60.1 °F 53.1 °F 78% 30.02 in 10.0 mi WSW 4.6 mph - N/A   Overcast
8:54 PM 59.0 °F 54.0 °F 83% 30.03 in 10.0 mi SW 3.5 mph - N/A   Overcast
9:54 PM 57.9 °F 55.0 °F 90% 30.06 in 10.0 mi Calm Calm - N/A   Overcast
10:54 PM 57.0 °F 55.0 °F 93% 30.07 in 10.0 mi Calm Calm - N/A   Overcast
11:54 PM 55.0 °F 53.1 °F 93% 30.07 in 10.0 mi Calm Calm - N/A   Overcast